Regional Weather Roundup
Issued by NWS

Home | Current Version | Previous Version | Graphics & Text | Print | Product List | Glossary On
Versions: 1 2 3 4 5 6 7 8 9 10 11 12 13 14 15 16 17 18 19 20 21 22 23 24 25 26 27 28 29 30 31 32 33 34 35 36 37 38 39 40 41 42 43 44 45 46 47 48 49 50
000
ASUS43 KOAX 270802
RWRNE

WEATHER ROUNDUP FOR NEBRASKA
NATIONAL WEATHER SERVICE OMAHA NE
300 AM CDT MON MAR 27 2017

NOTES: SATELLITE DATA IS BEING USED TO AUGMENT CLOUD COVER ABOVE
       12000 FEET.
       "FAIR" INDICATES FEW OR NO CLOUDS BELOW 12,000 FEET WITH NO
       SIGNIFICANT WEATHER AND/OR OBSTRUCTIONS TO VISIBILITY.

  * THESE STATIONS DO NOT REPORT WEATHER SUCH AS RAIN...SNOW OR FOG.

NEZ001>004-019>022-054>056-270900-
NEBRASKA PANHANDLE

CITY           SKY/WX    TMP DP  RH WIND       PRES   REMARKS
SCOTTSBLUFF    CLEAR     28  25  88 N3        29.94F
ALLIANCE       CLEAR     25  24  96 W8        29.92F WCI  16
CHADRON        CLOUDY    32  30  92 W5        29.93S WCI  27
KIMBALL        CLEAR     31  31 100 CALM      29.94F
SIDNEY         CLEAR     28  26  92 NW8       29.95S WCI  20
$$

NEZ057>060-069>072-079>082-270900-
SOUTHWEST NEBRASKA

CITY           SKY/WX    TMP DP  RH WIND       PRES   REMARKS
NORTH PLATTE   PTCLDY    38  37  97 CALM      29.92S
IMPERIAL       CLEAR     37  35  92 SW3       29.92F
LEXINGTON      CLOUDY    43  41  93 CALM      29.92F
MCCOOK         CLEAR     37  36  96 W7        29.93R WCI  32
OGALLALA       CLEAR     37  35  93 CALM      29.92S
$$

NEZ005>010-023>029-035>040-094-270900-
NORTH CENTRAL NEBRASKA

CITY           SKY/WX    TMP DP  RH WIND       PRES   REMARKS
VALENTINE      CLEAR     32  29  88 NW5       29.94R WCI  27
AINSWORTH      FOG       34  34 100 CALM      29.94R VSB 1/2
BROKEN BOW     CLEAR     38  32  79 N3        29.91F HAZE
O`NEILL        CLOUDY    42  40  93 CALM      29.95F
ORD            MOCLDY    42  39  89 N5        29.93F
THEDFORD       CLOUDY    41  40  97 CALM      29.94R FOG
$$

NEZ041-046>049-061>064-073>077-083>087-270900-
SOUTH CENTRAL NEBRASKA

CITY           SKY/WX    TMP DP  RH WIND       PRES   REMARKS
GRAND ISLAND   CLOUDY    44  44 100 N5        29.95R FOG
AURORA         CLOUDY    44  43  99 N7        29.94R FOG
HASTINGS       CLOUDY    45  44  97 N6        29.95S FOG
HEBRON         CLOUDY    44  43  95 CALM      29.93R
HOLDREGE       PTCLDY    40  39  95 CALM      29.93S FOG
KEARNEY *      CLOUDY    45  41  87 N5        29.94F
YORK           CLOUDY    45  45 100 N7        29.94R FOG
$$

NEZ011>018-030>034-042>045-270900-
NORTHEAST NEBRASKA

CITY           SKY/WX    TMP DP  RH WIND       PRES   REMARKS
NORFOLK        CLOUDY    42  40  92 CALM      29.95S
ALBION         CLOUDY    45  42  89 N5        29.96S
BLAIR          CLOUDY    45  42  91 CALM      29.93R
FREMONT        CLOUDY    44  43  97 CALM      29.94R
TEKAMAH        CLOUDY    44  41  89 N7        29.94R
WAYNE          CLOUDY    42  42  99 NW5       29.96R
$$

NEZ050>053-065>068-078-088>093-270900-
SOUTHEAST NEBRASKA

CITY           SKY/WX    TMP DP  RH WIND       PRES   REMARKS
LINCOLN        CLOUDY    45  43  93 N9        29.94S
OMAHA EPPLEY   CLOUDY    45  41  86 NW5       29.93R
BEATRICE       DRIZZLE   46  44  95 NE6       29.92S
FALLS CITY     CLOUDY    46  44  93 NE7       29.88F
NEBRASKA CITY  CLOUDY    45  44  95 NE3       29.93F
PLATTSMOUTH    CLOUDY    46  41  85 CALM      29.94R
$$

NEZ044-045-051>053-067-270900-
OMAHA AREA

CITY           SKY/WX    TMP DP  RH WIND       PRES   REMARKS
OMAHA EPPLEY   CLOUDY    45  41  86 NW5       29.93R
BLAIR          CLOUDY    45  42  91 CALM      29.93R
FREMONT        CLOUDY    44  43  97 CALM      29.94R
MILLARD        CLOUDY    48  44  84 N3        29.94R
OFFUTT AFB     CLOUDY    46  42  84 CALM      29.93R
PLATTSMOUTH    CLOUDY    46  41  85 CALM      29.94R
WAHOO          CLOUDY    44  42  94 N7        29.93S
$$




USA.gov is the U.S. government's official web portal to all federal, state and local government web resources and services.